Simultaneous Nadir Overpasses (SNOs) Predictions

Prediction of SNOs between NOAA-15 and METOP-C Satellite Orbit:

Table of predicted SNOs for the next 14.0 days since TLE Epoch: 11/24/2023
Index Date (NOAA-15) Time (NOAA-15) Lat,Lon (NOAA-15) SZA (NOAA-15 ) Date (METOP-C) Time (METOP-C) Lat,Lon (METOP-C) SZA (METOP-C ) Distance(km) Time Diff (sec)
1 12/07/2023 13:00:33 -81.06,-156.59 74.31 12/07/2023 12:59:28 -81.06,-156.77 74.36 3.08 65
2 12/07/2023 13:51:07 81.06, 10.81 105.70 12/07/2023 13:50:08 81.07, 10.70 105.67 2.00 59
3 12/07/2023 14:41:34 -81.07, 177.97 74.32 12/07/2023 14:40:49 -81.07, 178.11 74.32 2.48 45
4 12/07/2023 15:32:08 81.07, -14.63 105.70 12/07/2023 15:31:30 81.06, -14.79 105.66 2.97 38
5 12/07/2023 16:22:34 -81.07, 152.90 74.30 12/07/2023 16:22:10 -81.08, 152.99 74.29 2.24 24
6 12/07/2023 17:13:09 81.08, -40.07 105.69 12/07/2023 17:12:51 81.07, -39.91 105.69 3.05 18
7 12/07/2023 18:03:35 -81.07, 127.46 74.30 12/07/2023 18:03:32 -81.07, 127.50 74.30 0.77 3
8 12/07/2023 18:54:09 81.07, -65.14 105.71 12/07/2023 18:54:12 81.08, -65.02 105.73 2.19 3
9 12/07/2023 19:44:36 -81.08, 102.02 74.31 12/07/2023 19:44:54 -81.07, 102.01 74.31 1.69 18
10 12/07/2023 20:35:10 81.08, -90.59 105.70 12/07/2023 20:35:34 81.07, -90.51 105.72 1.51 24
11 12/07/2023 21:25:36 -81.07, 76.94 74.29 12/07/2023 21:26:15 -81.08, 76.89 74.28 0.94 39
12 12/07/2023 22:16:10 81.07,-115.66 105.72 12/07/2023 22:16:55 81.08,-115.63 105.75 1.06 45
13 12/07/2023 23:06:37 -81.08, 51.50 74.29 12/07/2023 23:07:37 -81.07, 51.40 74.29 2.31 60



Historial Predications of SNOs between NOAA-15 and METOP-C
